Weather History for Sanford, NC

Change the Weather History Date:

Saturday, June 8, 2013

  Actual Average (KRDU) Record (KRDU)
Temperature  
Mean Temperature 74 °F 75 °F  
Max Temperature 83 °F 86 °F 101 °F (2008)
Min Temperature 66 °F 64 °F 38 °F (1977)
Degree Days  
Heating Degree Days 0 0  
Month to date heating degree days 0  
Since 1 June heating degree days 0  
Since 1 July heating degree days 3243  
Cooling Degree Days 10 10  
Month to date cooling degree days 72  
Year to date cooling degree days 281  
Since 1 June cooling degree days 72  
Growing Degree Days 24 (Base 50)    
Moisture  
Dew Point 68 °F    
Average Humidity 85    
Maximum Humidity 98    
Minimum Humidity 57    
Precipitation  
Precipitation 0.05 in 0.12 in 1.71 in (1943)
Month to date precipitation 0.97  
Year to date precipitation 18.00  
Sea Level Pressure  
Sea Level Pressure 29.96 in    
Wind  
Wind Speed 2 mph (West)    
Max Wind Speed 9 mph    
Max Gust Speed 17 mph    
Visibility 8 miles    
Events Rain    
T = Trace of Precipitation, MM = Missing Value Source: NWS Daily Summary

Daily Weather History Graph

Daily Weather History Graph

Search for Another Location

Airport:

Trip Planner

Search our weather history database for the weather conditions in past years. The results will help you decide how hot, cold, wet, or windy it might be!

Date:

Astronomy

Jun. 08, 2013 Rise Set
Actual Time 6:00 AM EDT 8:30 PM EDT
Civil Twilight 5:30 AM EDT 9:00 PM EDT
Nautical Twilight 4:53 AM EDT 9:37 PM EDT
Astronomical Twilight 4:13 AM EDT 10:18 PM EDT
Moon 6:04 AM EDT (6/8) 8:33 PM EDT (6/8)
Length of Visible Light 15h 29m
Length of Day
14h 30m
New Moon, 0% of the Moon is Illuminated
Jun 8
New Moon
Jun 16
First Quarter
Jun 23
Full
Jun 30
Last Quarter
Jul 8
New

Hourly Weather History & Observations

Time (EDT) Temp. Heat Index Dew Point Humidity Pressure Visibility Wind Dir Wind Speed Gust Speed Precip Events Conditions
12:15 AM 69.1 °F - 68.0 °F 96% 29.83 in 10.0 mi Calm Calm - N/A   Scattered Clouds
12:35 AM 68.7 °F - 67.5 °F 96% 29.85 in 7.0 mi Calm Calm - N/A   Scattered Clouds
12:55 AM 68.2 °F - 67.1 °F 96% 29.84 in 10.0 mi Calm Calm - N/A   Scattered Clouds
1:15 AM 68.2 °F - 67.3 °F 97% 29.85 in 10.0 mi Calm Calm - N/A   Scattered Clouds
1:35 AM 68.9 °F - 68.0 °F 97% 29.86 in 10.0 mi SW 3.5 mph - N/A   Overcast
1:55 AM 68.9 °F - 67.6 °F 96% 29.87 in 10.0 mi SW 4.6 mph - 0.01 in Rain Rain
2:15 AM 68.7 °F - 67.5 °F 96% 29.86 in 7.0 mi Calm Calm - 0.01 in Rain Rain
2:35 AM 68.4 °F - 67.3 °F 96% 29.86 in 7.0 mi Calm Calm - 0.02 in Rain Rain
2:55 AM 68.0 °F - 66.7 °F 96% 29.85 in 3.0 mi Calm Calm - 0.02 in Rain Light Rain
3:15 AM 68.0 °F - 67.1 °F 97% 29.86 in 7.0 mi Calm Calm - N/A   Scattered Clouds
3:35 AM 67.5 °F - 66.6 °F 97% 29.85 in 2.0 mi Calm Calm - N/A   Mostly Cloudy
3:55 AM 67.3 °F - 66.4 °F 97% 29.86 in 7.0 mi Calm Calm - N/A   Scattered Clouds
4:15 AM 67.3 °F - 66.4 °F 97% 29.86 in 4.0 mi Calm Calm - 0.01 in Rain Light Rain
4:35 AM 66.9 °F - 66.2 °F 98% 29.86 in 2.5 mi Calm Calm - 0.01 in   Scattered Clouds
4:55 AM 66.7 °F - 66.2 °F 98% 29.86 in 2.0 mi Calm Calm - 0.01 in   Mostly Cloudy
5:15 AM 66.7 °F - 66.2 °F 98% 29.86 in 2.0 mi Calm Calm - N/A   Mostly Cloudy
5:35 AM 66.7 °F - 66.2 °F 98% 29.87 in 5.0 mi Calm Calm - N/A   Scattered Clouds
5:55 AM 67.5 °F - 66.7 °F 98% 29.88 in 7.0 mi Calm Calm - N/A   Mostly Cloudy
6:15 AM 67.1 °F - 66.2 °F 97% 29.88 in 4.0 mi Calm Calm - N/A   Overcast
6:35 AM 67.5 °F - 66.7 °F 98% 29.90 in 5.0 mi Calm Calm - N/A   Overcast
6:55 AM 67.6 °F - 67.1 °F 98% 29.90 in 3.0 mi Calm Calm - N/A Rain Heavy Rain
7:15 AM 68.0 °F - 67.3 °F 98% 29.90 in 4.0 mi Calm Calm - 0.01 in   Overcast
7:35 AM 68.4 °F - 67.6 °F 98% 29.91 in 5.0 mi Calm Calm - 0.01 in   Overcast
7:55 AM 68.5 °F - 68.0 °F 98% 29.91 in 5.0 mi Calm Calm - 0.01 in   Overcast
8:15 AM 69.1 °F - 68.4 °F 98% 29.92 in 7.0 mi Calm Calm - N/A   Overcast
8:35 AM 70.0 °F - 69.3 °F 98% 29.93 in 5.0 mi Calm Calm - N/A   Overcast
8:55 AM 70.7 °F - 69.8 °F 97% 29.93 in 5.0 mi Calm Calm - N/A   Overcast
9:15 AM 71.1 °F - 70.0 °F 96% 29.95 in 5.0 mi Calm Calm - N/A   Overcast
9:35 AM 71.6 °F - 70.3 °F 96% 29.96 in 7.0 mi West 4.6 mph - N/A   Overcast
9:55 AM 71.6 °F - 69.8 °F 94% 29.96 in 7.0 mi West 5.8 mph - N/A   Overcast
10:15 AM 72.1 °F - 70.0 °F 93% 29.97 in 7.0 mi West 5.8 mph - N/A   Overcast
10:35 AM 72.7 °F - 70.2 °F 92% 29.97 in 10.0 mi West 4.6 mph - N/A   Overcast
10:55 AM 70.5 °F - 66.4 °F 87% 29.98 in 10.0 mi North 8.1 mph 17.3 mph N/A   Overcast
11:15 AM 70.3 °F - 66.2 °F 87% 29.99 in 10.0 mi North 5.8 mph - N/A   Overcast
11:35 AM 72.5 °F - 66.9 °F 83% 29.99 in 10.0 mi North 5.8 mph - N/A   Mostly Cloudy
11:55 AM 75.0 °F - 68.4 °F 80% 29.99 in 10.0 mi Calm Calm - N/A   Mostly Cloudy
12:15 PM 75.4 °F - 67.8 °F 77% 30.00 in 10.0 mi WNW 5.8 mph - N/A   Overcast
12:35 PM 76.1 °F - 67.8 °F 75% 29.99 in 10.0 mi WNW 3.5 mph - N/A   Mostly Cloudy
12:55 PM 77.4 °F - 68.0 °F 73% 29.99 in 10.0 mi West 8.1 mph - N/A   Scattered Clouds
1:15 PM 78.3 °F - 68.0 °F 71% 29.99 in 10.0 mi WNW 6.9 mph - N/A   Scattered Clouds
1:35 PM 79.3 °F - 67.8 °F 68% 29.99 in 10.0 mi WSW 3.5 mph - N/A   Clear
1:55 PM 80.4 °F 82.7 °F 66.6 °F 63% 29.98 in 10.0 mi WSW 6.9 mph - N/A   Scattered Clouds
2:15 PM 81.0 °F 83.3 °F 66.9 °F 62% 29.98 in 10.0 mi SW 9.2 mph - N/A   Scattered Clouds
2:35 PM 81.1 °F 83.4 °F 66.4 °F 61% 29.99 in 10.0 mi West 8.1 mph - N/A   Mostly Cloudy
2:55 PM 81.5 °F 83.7 °F 66.4 °F 60% 29.98 in 10.0 mi West 8.1 mph - N/A   Mostly Cloudy
3:15 PM 81.5 °F 83.9 °F 67.1 °F 61% 29.98 in 10.0 mi Calm Calm - N/A   Mostly Cloudy
3:35 PM 82.2 °F 84.9 °F 67.5 °F 61% 29.98 in 10.0 mi West 4.6 mph - N/A   Scattered Clouds
3:55 PM 81.5 °F 83.9 °F 67.1 °F 61% 29.98 in 10.0 mi WSW 5.8 mph - N/A   Mostly Cloudy
4:15 PM 82.6 °F 85.1 °F 67.1 °F 59% 29.99 in 10.0 mi West 3.5 mph - N/A   Mostly Cloudy
4:35 PM 81.5 °F 84.2 °F 67.8 °F 63% 29.99 in 10.0 mi SSW 3.5 mph - N/A   Mostly Cloudy
4:55 PM 83.5 °F 86.2 °F 67.5 °F 58% 29.99 in 10.0 mi West 3.5 mph - N/A   Scattered Clouds
5:15 PM 83.3 °F 86.2 °F 67.5 °F 59% 29.99 in 10.0 mi SW 5.8 mph - N/A   Scattered Clouds
5:35 PM 83.7 °F 86.5 °F 67.6 °F 58% 29.99 in 10.0 mi SSW 4.6 mph - N/A   Scattered Clouds
5:55 PM 83.3 °F 85.7 °F 66.6 °F 57% 30.00 in 10.0 mi WSW 5.8 mph - N/A   Scattered Clouds
6:15 PM 82.6 °F 85.3 °F 67.3 °F 60% 30.00 in 10.0 mi Calm Calm - N/A   Scattered Clouds
6:35 PM 82.9 °F 85.6 °F 67.1 °F 59% 30.00 in 10.0 mi Calm Calm - N/A   Clear
6:55 PM 83.3 °F 86.9 °F 68.9 °F 62% 30.01 in 10.0 mi Calm Calm - N/A   Clear
7:15 PM 82.4 °F 85.2 °F 67.6 °F 61% 30.02 in 10.0 mi Calm Calm - N/A   Scattered Clouds
7:35 PM 81.5 °F 84.9 °F 69.6 °F 67% 30.02 in 10.0 mi Calm Calm - N/A   Scattered Clouds
7:55 PM 77.0 °F - 72.1 °F 85% 30.03 in 10.0 mi Calm Calm - N/A   Clear
8:15 PM 76.1 °F - 71.8 °F 86% 30.04 in 10.0 mi Calm Calm - N/A   Clear
8:35 PM 74.8 °F - 72.0 °F 91% 30.04 in 10.0 mi Calm Calm - N/A   Scattered Clouds
8:55 PM 73.8 °F - 72.0 °F 94% 30.05 in 7.0 mi Calm Calm - N/A   Scattered Clouds
9:15 PM 72.9 °F - 71.4 °F 95% 30.06 in 5.0 mi Calm Calm - N/A   Clear
9:35 PM 72.5 °F - 71.1 °F 95% 30.07 in 3.0 mi Calm Calm - N/A   Scattered Clouds
9:55 PM 72.5 °F - 71.1 °F 95% 30.08 in 5.0 mi Calm Calm - N/A   Scattered Clouds
10:15 PM 71.8 °F - 70.5 °F 96% 30.09 in 1.5 mi Calm Calm - N/A   Scattered Clouds
10:35 PM 71.8 °F - 70.7 °F 96% 30.09 in 5.0 mi Calm Calm - N/A   Clear
10:55 PM 71.1 °F - 70.0 °F 96% 30.09 in 10.0 mi Calm Calm - N/A   Clear
11:15 PM 70.3 °F - 69.1 °F 96% 30.10 in 2.5 mi Calm Calm - N/A   Clear
11:35 PM 70.3 °F - 69.3 °F 96% 30.10 in 3.0 mi Calm Calm - N/A   Clear
11:55 PM 69.8 °F - 68.5 °F 96% 30.10 in 5.0 mi Calm Calm - N/A   Clear